Tracking 26951 objects as of 4-Feb-2023
HD Live streaming from Space Station
objects crossing your sky now

NOAA 16 DEB

Track NOAA 16 DEB now!
10-day predictions


NORAD ID: 42397
Int'l Code: 2000-055SR
Perigee: 803.4 km
Apogee: 872.6 km
Inclination: 98.8 °
Period: 101.5 minutes
Semi major axis: 7208 km
RCS: Unknown
Launch date: September 21, 2000
Source: United States (US)
Launch site: AIR FORCE WESTERN TEST RANGE (AFWTR)

Note: This is SATELLITE DEBRIS
Your satellite tracking list
Your tracking list is empty




NASA's NSSDC Master Catalog

Two Line Element Set (TLE):
1 42397U 00055SR  23032.01517959  .00004022  00000-0  19484-2 0  9998
2 42397  98.7694 104.4364 0047992 299.2985  60.3399 14.18376434357452
Source of the keplerian elements: AFSPC